Location: Bartlow
(52.0833°N, 0.3167°E)
Time: 13:13:02
(UTC+00:00)

SL-16 R/B - Pass Details

Date: 26 September 2023
Orbit: 985 x 1006 km, 99.7° (Epoch: 28 November)

Event Time Altitude Azimuth Distance (km) Brightness Sun altitude
Exits shadow 03:14:07 32° 291° (WNW) 1,630 3.3 -23.7°
Drops below altitude 10° 03:18:25 10° 330° (NNW) 2,766 4.9 -23.2°
Sets 03:21:07 0° 339° (NNW) 3,716 5.7 -22.8°
